Flag for U.S.A. Weather past 2 weeks in Colorado Springs, Colorado, U.S.A.

Now
54 °F

Scattered clouds.


Feels Like: 52 °F
Forecast: 21 / 43 °F
Wind: 7 mph from North

Location: City Of Colorado Springs Municipal Airport

Current Time: Dec 25, 2014 at 12:56:59 PM

Latest Report: Dec 25, 2014 at 11:54 AM


Visibility: 10 mi

Pressure: 29.33 "Hg

Humidity: 17%

Dew point: 10 °F

Location of Colorado SpringsLocation

Historic Weather in Colorado Springs — Graph

°F

Colorado Springs temperature yesterday

Maximum temperature yesterday: 41 °F (at 1:54 PM)
Minimum temperature yesterday: 10 °F (at 1:54 AM)
Average temperature yesterday: 27 °F

Past Weeks' High & Low Weather Summary

 TemperatureHumidityPressure
High60 °F (Dec 11, 1:54 PM)96% (Dec 18, 12:54 AM)30.36 "Hg (Dec 18, 12:54 AM)
Low10 °F (Dec 24, 1:54 AM)9% (Dec 10, 12:54 PM)29.33 "Hg (Dec 25, 11:54 AM)
Average34 °F56%29.99 "Hg
* Reported Dec 10 11:54 AM — Dec 25 11:54 AM, Colorado Springs, Weather by CustomWeather, © 2014

Note: Actual official high and low records may vary slightly from our data, if they occured in-between our weather recording intervals... More about our weather records

Advertising

Colorado Springs weather history for previous 24 hours

 ConditionsComfort  
Time TempWeatherWind HumidityBarometerVisibility
11:54 AM
Dec 25
54 °FScattered clouds.7 mph17%29.33 "Hg10 mi
10:54 AM50 °FPassing clouds.15 mph25%29.37 "Hg10 mi
9:54 AM52 °FPassing clouds.22 mph15%29.38 "Hg10 mi
8:54 AM46 °FPassing clouds.21 mph29%29.42 "Hg10 mi
7:54 AM46 °FPassing clouds.16 mph27%29.41 "Hg10 mi
6:54 AM28 °FPassing clouds.8 mph56%29.52 "Hg10 mi
5:54 AM27 °FPassing clouds.10 mph61%29.51 "Hg10 mi
4:54 AM33 °FPassing clouds.5 mph45%29.45 "Hg10 mi
3:54 AM33 °FPassing clouds.8 mph41%29.47 "Hg10 mi
2:54 AM33 °FPassing clouds.8 mph41%29.49 "Hg10 mi
1:54 AM37 °FPassing clouds.5 mph33%29.47 "Hg10 mi
12:54 AM34 °FPassing clouds.8 mph40%29.49 "Hg10 mi
11:54 PM
Dec 24
35 °FPassing clouds.10 mph40%29.52 "Hg10 mi
10:54 PM38 °FMostly cloudy.8 mph36%29.55 "Hg10 mi
9:54 PM33 °FOvercast.No wind48%29.61 "Hg10 mi
8:54 PM29 °FOvercast.5 mph54%29.68 "Hg10 mi
7:54 PM29 °FOvercast.3 mph54%29.77 "Hg10 mi
6:54 PM27 °FPassing clouds.8 mph53%29.83 "Hg10 mi
5:54 PM28 °FPassing clouds.5 mph49%29.85 "Hg10 mi
4:54 PM34 °FPassing clouds.3 mph35%29.85 "Hg10 mi
3:54 PM36 °FPartly sunny.7 mph32%29.86 "Hg10 mi
2:54 PM39 °FPartly sunny.9 mph31%29.85 "Hg10 mi
1:54 PM41 °FScattered clouds.No wind27%29.88 "Hg10 mi
12:54 PM40 °FScattered clouds.6 mph27%29.86 "Hg10 mi
Weather by CustomWeather, © 2014

See weather overviewHow to use our weather pages